Location: Frankfurt+(oder)
(51.7984°N, 12.2168°E)
Time: 00:41:29
(UTC+02:00)

ISS - Pass Details

Date: 06 January 2018
Orbit: 402 x 407 km, 51.6° (Epoch: 27 April)

Event Time Altitude Azimuth Distance (km) Brightness Sun altitude
Exits shadow 05:29:14 34° 87° (E) 701 -2.1 -24.7°
Drops below altitude 10° 05:31:16 10° 84° (E) 1,488 0.0 -24.4°
Enters shadow 06:26:11 -71° 274° (W) 12,474 3.6 -16.1°
Maximum altitude 07:04:31 78° 193° (SSW) 429 -3.7 -10.5°
